| time (UTC) | temp F | wind direction | speed knots | gust knots | rain 1hr in | rain 24hr in | rain mn in | humidity % | barometer mb |
| 20260905200003 | 76 | 237 | 7.0 | 11.3 | 0.00 | 0.00 | 0.00 | 34 | 1018.1 |
| 20260905195002 | 76 | 244 | 6.1 | 12.2 | 0.00 | 0.00 | 0.00 | 35 | 1017.9 |
| 20260905194502 | 76 | 241 | 7.0 | 11.3 | 0.00 | 0.00 | 0.00 | 36 | 1018.0 |
| 20260905194002 | 76 | 235 | 7.0 | 13.0 | 0.00 | 0.00 | 0.00 | 37 | 1018.1 |
| 20260905193502 | 76 | 238 | 6.1 | 13.0 | 0.00 | 0.00 | 0.00 | 37 | 1018.1 |
| 20260905193002 | 76 | 245 | 7.0 | 11.3 | 0.00 | 0.00 | 0.00 | 36 | 1017.9 |
| 20260905192502 | 76 | 241 | 6.1 | 9.6 | 0.00 | 0.00 | 0.00 | 37 | 1018.0 |
| 20260905192002 | 76 | 245 | 5.2 | 12.2 | 0.00 | 0.00 | 0.00 | 38 | 1018.1 |
| 20260905191502 | 75 | 248 | 5.2 | 8.7 | 0.00 | 0.00 | 0.00 | 39 | 1018.1 |
| 20260905191002 | 75 | 240 | 5.2 | 8.7 | 0.00 | 0.00 | 0.00 | 39 | 1018.2 |
| 20260905190502 | 75 | 236 | 4.3 | 12.2 | 0.00 | 0.00 | 0.00 | 41 | 1018.2 |
| 20260905190003 | 75 | 251 | 4.3 | 6.1 | 0.00 | 0.00 | 0.00 | 40 | 1018.3 |
| 20260905185502 | 75 | 242 | 5.2 | 9.6 | 0.00 | 0.00 | 0.00 | 42 | 1018.3 |
| 20260905185003 | 74 | 244 | 4.3 | 7.8 | 0.00 | 0.00 | 0.00 | 43 | 1018.4 |
| 20260905184502 | 74 | 241 | 4.3 | 7.8 | 0.00 | 0.00 | 0.00 | 44 | 1018.4 |
| 20260905184002 | 74 | 235 | 5.2 | 9.6 | 0.00 | 0.00 | 0.00 | 44 | 1018.4 |
| 20260905183502 | 74 | 238 | 4.3 | 7.8 | 0.00 | 0.00 | 0.00 | 44 | 1018.4 |
| 20260905183003 | 74 | 242 | 3.5 | 7.8 | 0.00 | 0.00 | 0.00 | 44 | 1018.4 |
| 20260905182502 | 74 | 253 | 3.5 | 8.7 | 0.00 | 0.00 | 0.00 | 43 | 1018.4 |
| 20260905182003 | 75 | 250 | 1.7 | 9.6 | 0.00 | 0.00 | 0.00 | 43 | 1018.4 |
| 20260905181002 | 75 | 0 | 0.9 | 0.0 | 0.00 | 0.00 | 0.00 | 42 | 1018.5 |
| 20260905180502 | 75 | 335 | 0.9 | 3.5 | 0.00 | 0.00 | 0.00 | 43 | 1018.6 |
| 20260905180003 | 74 | 321 | 0.9 | 5.2 | 0.00 | 0.00 | 0.00 | 45 | 1018.6 |
| 20260905175502 | 74 | 314 | 1.7 | 4.3 | 0.00 | 0.00 | 0.00 | 46 | 1018.3 |
| 20260905175002 | 73 | 326 | 1.7 | 4.3 | 0.00 | 0.00 | 0.00 | 48 | 1018.4 |
| 20260905174502 | 72 | 348 | 0.9 | 3.5 | 0.00 | 0.00 | 0.00 | 50 | 1018.5 |
| 20260905174002 | 71 | 303 | 0.0 | 2.6 | 0.00 | 0.00 | 0.00 | 51 | 1018.4 |
| 20260905173502 | 71 | 0 | 0.9 | 0.0 | 0.00 | 0.00 | 0.00 | 51 | 1018.4 |
| 20260905173003 | 71 | 243 | 1.7 | 1.7 | 0.00 | 0.00 | 0.00 | 52 | 1018.4 |
| 20260905172503 | 71 | 251 | 0.9 | 2.6 | 0.00 | 0.00 | 0.00 | 52 | 1018.4 |
| 20260905172003 | 70 | 6 | 1.7 | 3.5 | 0.00 | 0.00 | 0.00 | 54 | 1018.6 |
| 20260905171002 | 69 | 340 | 0.9 | 1.7 | 0.00 | 0.00 | 0.00 | 57 | 1018.6 |
| 20260905170502 | 68 | 0 | 0.9 | 0.0 | 0.00 | 0.00 | 0.00 | 58 | 1018.5 |
| 20260905170002 | 67 | 306 | 0.9 | 2.6 | 0.00 | 0.00 | 0.00 | 59 | 1018.5 |
| 20260905165502 | 67 | 318 | 0.0 | 1.7 | 0.00 | 0.00 | 0.00 | 60 | 1018.5 |
| 20260905164502 | 66 | 0 | 0.9 | 0.0 | 0.00 | 0.00 | 0.00 | 62 | 1018.4 |
| 20260905163503 | 64 | 336 | 0.9 | 1.7 | 0.00 | 0.00 | 0.00 | 66 | 1018.5 |
| 20260905163003 | 64 | 339 | 0.0 | 1.7 | 0.00 | 0.00 | 0.00 | 69 | 1018.5 |
| 20260905162502 | 63 | 329 | 0.0 | 0.9 | 0.00 | 0.00 | 0.00 | 70 | 1018.4 |
| 20260905162002 | 62 | 339 | 0.0 | 0.9 | 0.00 | 0.00 | 0.00 | 72 | 1018.4 |
| 20260905161502 | 62 | 339 | 0.0 | 0.9 | 0.00 | 0.00 | 0.00 | 72 | 1018.5 |
| 20260905160502 | 61 | 0 | 0.0 | 0.0 | 0.00 | 0.00 | 0.00 | 75 | 1018.5 |
| 20260905160003 | 60 | 0 | 0.0 | 0.0 | 0.00 | 0.00 | 0.00 | 77 | 1018.6 |
| 20260905155502 | 60 | 340 | 0.0 | 0.9 | 0.00 | 0.00 | 0.00 | 79 | 1018.7 |
| 20260905155003 | 59 | 338 | 0.0 | 1.7 | 0.00 | 0.00 | 0.00 | 83 | 1018.8 |
| 20260905154502 | 58 | 337 | 0.0 | 1.7 | 0.00 | 0.00 | 0.00 | 86 | 1018.6 |
| 20260905154003 | 56 | 355 | 0.0 | 0.9 | 0.00 | 0.00 | 0.00 | 89 | 1018.6 |
| 20260905153002 | 54 | 6 | 0.0 | 0.9 | 0.00 | 0.00 | 0.00 | 90 | 1018.4 |
| 20260905152503 | 54 | 6 | 0.0 | 0.9 | 0.00 | 0.00 | 0.00 | 90 | 1018.4 |
| 20260905152003 | 53 | 0 | 0.0 | 0.0 | 0.00 | 0.00 | 0.00 | 90 | 1018.4 |
| 20260905151502 | 53 | 6 | 0.0 | 0.9 | 0.00 | 0.00 | 0.00 | 90 | 1018.4 |
| 20260905151002 | 52 | 9 | 0.0 | 0.9 | 0.00 | 0.00 | 0.00 | 90 | 1018.5 |
| 20260905150003 | 51 | 0 | 0.0 | 0.0 | 0.00 | 0.00 | 0.00 | 89 | 1018.3 |
| 20260905145502 | 50 | 55 | 0.0 | 0.9 | 0.00 | 0.00 | 0.00 | 89 | 1018.2 |
| 20260905144503 | 50 | 0 | 0.0 | 0.0 | 0.00 | 0.00 | 0.00 | 88 | 1018.2 |
| 20260905144002 | 50 | 0 | 0.0 | 0.0 | 0.00 | 0.00 | 0.00 | 88 | 1018.1 |
| 20260905143502 | 50 | 0 | 0.0 | 0.0 | 0.00 | 0.00 | 0.00 | 88 | 1018.0 |
| 20260905143003 | 49 | 0 | 0.0 | 0.0 | 0.00 | 0.00 | 0.00 | 87 | 1017.8 |
| 20260905142502 | 49 | 56 | 0.0 | 0.9 | 0.00 | 0.00 | 0.00 | 87 | 1017.9 |
| 20260905142002 | 49 | 0 | 0.0 | 0.0 | 0.00 | 0.00 | 0.00 | 87 | 1017.9 |
| 20260905141503 | 49 | 55 | 0.0 | 0.9 | 0.00 | 0.00 | 0.00 | 87 | 1017.8 |
| 20260905141003 | 49 | 56 | 0.0 | 0.9 | 0.00 | 0.00 | 0.00 | 86 | 1017.7 |
| 20260905140502 | 49 | 0 | 0.0 | 0.0 | 0.00 | 0.00 | 0.00 | 86 | 1017.7 |
| 20260905140003 | 49 | 0 | 0.0 | 0.0 | 0.00 | 0.00 | 0.00 | 86 | 1017.7 |
| 20260905135502 | 49 | 0 | 0.0 | 0.0 | 0.00 | 0.00 | 0.00 | 86 | 1017.6 |
| 20260905135002 | 50 | 0 | 0.0 | 0.0 | 0.00 | 0.00 | 0.00 | 86 | 1017.6 |
| 20260905134503 | 50 | 0 | 0.0 | 0.0 | 0.00 | 0.00 | 0.00 | 86 | 1017.5 |
| 20260905133502 | 50 | 55 | 0.0 | 0.9 | 0.00 | 0.00 | 0.00 | 86 | 1017.5 |
| 20260905133003 | 50 | 55 | 0.0 | 0.9 | 0.00 | 0.00 | 0.00 | 85 | 1017.5 |
| 20260905132502 | 50 | 0 | 0.0 | 0.0 | 0.00 | 0.00 | 0.00 | 85 | 1017.4 |
| 20260905132002 | 50 | 0 | 0.0 | 0.0 | 0.00 | 0.00 | 0.00 | 85 | 1017.2 |
| 20260905131503 | 50 | 0 | 0.0 | 0.0 | 0.00 | 0.00 | 0.00 | 86 | 1017.2 |
| 20260905130502 | 50 | 0 | 0.0 | 0.0 | 0.00 | 0.00 | 0.00 | 86 | 1017.2 |
| 20260905125503 | 50 | 0 | 0.0 | 0.0 | 0.00 | 0.00 | 0.00 | 86 | 1017.2 |
| 20260905125003 | 50 | 0 | 0.0 | 0.0 | 0.00 | 0.00 | 0.00 | 86 | 1017.2 |
| 20260905124503 | 51 | 0 | 0.0 | 0.0 | 0.00 | 0.00 | 0.00 | 86 | 1017.2 |
| 20260905123503 | 51 | 0 | 0.0 | 0.0 | 0.00 | 0.00 | 0.00 | 86 | 1017.1 |
| 20260905123002 | 51 | 0 | 0.0 | 0.0 | 0.00 | 0.00 | 0.00 | 86 | 1017.2 |
| 20260905122503 | 51 | 0 | 0.0 | 0.0 | 0.00 | 0.00 | 0.00 | 85 | 1017.2 |
| 20260905122003 | 51 | 0 | 0.0 | 0.0 | 0.00 | 0.00 | 0.00 | 85 | 1017.2 |
| 20260905121502 | 51 | 0 | 0.0 | 0.0 | 0.00 | 0.00 | 0.00 | 84 | 1017.2 |
| 20260905121002 | 51 | 0 | 0.0 | 0.0 | 0.00 | 0.00 | 0.00 | 84 | 1017.3 |
| 20260905120503 | 51 | 0 | 0.0 | 0.0 | 0.00 | 0.00 | 0.00 | 84 | 1017.3 |
| 20260905120003 | 51 | 0 | 0.0 | 0.0 | 0.00 | 0.00 | 0.00 | 83 | 1017.3 |
| 20260905115502 | 51 | 0 | 0.0 | 0.0 | 0.00 | 0.00 | 0.00 | 83 | 1017.3 |
| 20260905115003 | 51 | 0 | 0.0 | 0.0 | 0.00 | 0.00 | 0.00 | 83 | 1017.4 |
| 20260905114502 | 51 | 0 | 0.0 | 0.0 | 0.00 | 0.00 | 0.00 | 83 | 1017.5 |
| 20260905114003 | 51 | 0 | 0.0 | 0.0 | 0.00 | 0.00 | 0.00 | 83 | 1017.3 |
| 20260905113502 | 52 | 0 | 0.0 | 0.0 | 0.00 | 0.00 | 0.00 | 83 | 1017.4 |
| 20260905113003 | 52 | 0 | 0.0 | 0.0 | 0.00 | 0.00 | 0.00 | 84 | 1017.4 |
| 20260905112003 | 52 | 0 | 0.0 | 0.0 | 0.00 | 0.00 | 0.00 | 84 | 1017.5 |
| 20260905111503 | 52 | 0 | 0.0 | 0.0 | 0.00 | 0.00 | 0.00 | 84 | 1017.4 |
| 20260905111002 | 52 | 58 | 0.0 | 0.9 | 0.00 | 0.00 | 0.00 | 84 | 1017.5 |
| 20260905104502 | 52 | 0 | 0.0 | 0.0 | 0.00 | 0.00 | 0.00 | 82 | 1017.6 |
| 20260905104003 | 52 | 0 | 0.0 | 0.0 | 0.00 | 0.00 | 0.00 | 82 | 1017.6 |
| 20260905103502 | 52 | 0 | 0.0 | 0.0 | 0.00 | 0.00 | 0.00 | 82 | 1017.6 |
| 20260905103003 | 52 | 57 | 0.0 | 0.9 | 0.00 | 0.00 | 0.00 | 82 | 1017.6 |
| 20260905102502 | 52 | 0 | 0.0 | 0.0 | 0.00 | 0.00 | 0.00 | 82 | 1017.5 |
| 20260905102002 | 52 | 57 | 0.0 | 0.9 | 0.00 | 0.00 | 0.00 | 82 | 1017.6 |
| 20260905101502 | 52 | 0 | 0.0 | 0.0 | 0.00 | 0.00 | 0.00 | 81 | 1017.5 |
| 20260905100503 | 52 | 56 | 0.0 | 0.9 | 0.00 | 0.00 | 0.00 | 82 | 1017.5 |
| 20260905100003 | 52 | 56 | 0.0 | 0.9 | 0.00 | 0.00 | 0.00 | 81 | 1017.6 |
| 20260905095503 | 52 | 49 | 0.0 | 0.9 | 0.00 | 0.00 | 0.00 | 81 | 1017.6 |
| 20260905095003 | 52 | 0 | 0.0 | 0.0 | 0.00 | 0.00 | 0.00 | 81 | 1017.6 |
| 20260905094502 | 52 | 0 | 0.0 | 0.0 | 0.00 | 0.00 | 0.00 | 80 | 1017.5 |
| 20260905093503 | 52 | 0 | 0.0 | 0.0 | 0.00 | 0.00 | 0.00 | 80 | 1017.5 |
| 20260905092003 | 53 | 0 | 0.0 | 0.0 | 0.00 | 0.00 | 0.00 | 79 | 1017.5 |
| 20260905091502 | 53 | 76 | 0.0 | 1.7 | 0.00 | 0.00 | 0.00 | 79 | 1017.4 |
| 20260905091003 | 53 | 0 | 0.0 | 0.0 | 0.00 | 0.00 | 0.00 | 79 | 1017.5 |
| 20260905090503 | 53 | 0 | 0.0 | 0.0 | 0.00 | 0.00 | 0.00 | 78 | 1017.5 |
| 20260905090003 | 53 | 0 | 0.0 | 0.0 | 0.00 | 0.00 | 0.00 | 78 | 1017.5 |
| 20260905085003 | 54 | 0 | 0.0 | 0.0 | 0.00 | 0.00 | 0.00 | 78 | 1017.7 |
| 20260905084503 | 54 | 0 | 0.0 | 0.0 | 0.00 | 0.00 | 0.00 | 78 | 1017.8 |
| 20260905084002 | 54 | 0 | 0.0 | 0.0 | 0.00 | 0.00 | 0.00 | 77 | 1017.8 |
| 20260905083503 | 54 | 0 | 0.0 | 0.0 | 0.00 | 0.00 | 0.00 | 78 | 1017.8 |
| 20260905083003 | 54 | 0 | 0.0 | 0.0 | 0.00 | 0.00 | 0.00 | 77 | 1017.9 |
| 20260905082503 | 54 | 0 | 0.0 | 0.0 | 0.00 | 0.00 | 0.00 | 76 | 1017.9 |
| 20260905082003 | 54 | 0 | 0.0 | 0.0 | 0.00 | 0.00 | 0.00 | 76 | 1017.9 |
| 20260905081503 | 54 | 0 | 0.0 | 0.0 | 0.00 | 0.00 | 0.00 | 75 | 1017.9 |
| 20260905081003 | 55 | 71 | 0.0 | 0.9 | 0.00 | 0.00 | 0.00 | 75 | 1017.9 |
| 20260905080503 | 55 | 0 | 0.0 | 0.0 | 0.00 | 0.00 | 0.00 | 75 | 1018.0 |
| 20260905080003 | 55 | 0 | 0.0 | 0.0 | 0.00 | 0.00 | 0.00 | 75 | 1017.9 |
| 20260905075003 | 55 | 0 | 0.0 | 0.0 | 0.00 | 0.00 | 0.00 | 76 | 1017.9 |
| 20260905074503 | 55 | 0 | 0.0 | 0.0 | 0.00 | 0.00 | 0.00 | 75 | 1017.8 |
| 20260905074002 | 56 | 0 | 0.0 | 0.0 | 0.00 | 0.00 | 0.00 | 75 | 1017.8 |
| 20260905073503 | 56 | 0 | 0.0 | 0.0 | 0.00 | 0.00 | 0.00 | 74 | 1017.8 |
| 20260905073003 | 56 | 71 | 0.0 | 0.9 | 0.00 | 0.00 | 0.00 | 74 | 1017.8 |
| 20260905072502 | 56 | 0 | 0.0 | 0.0 | 0.00 | 0.00 | 0.00 | 74 | 1017.8 |
| 20260905072003 | 56 | 72 | 0.0 | 0.9 | 0.00 | 0.00 | 0.00 | 73 | 1017.8 |
| 20260905071503 | 56 | 73 | 0.0 | 0.9 | 0.00 | 0.00 | 0.00 | 73 | 1017.8 |
| 20260905071002 | 56 | 0 | 0.0 | 0.0 | 0.00 | 0.00 | 0.00 | 72 | 1017.7 |
| 20260905065503 | 57 | 74 | 0.9 | 0.9 | 0.00 | 0.00 | 0.00 | 73 | 1017.7 |
| 20260905065003 | 57 | 71 | 0.9 | 1.7 | 0.00 | 0.00 | 0.00 | 73 | 1017.6 |
| 20260905064502 | 57 | 73 | 0.9 | 1.7 | 0.00 | 0.00 | 0.00 | 73 | 1017.7 |
| 20260905064003 | 57 | 73 | 0.9 | 1.7 | 0.00 | 0.00 | 0.00 | 72 | 1017.6 |
| 20260905063003 | 57 | 78 | 0.0 | 1.7 | 0.00 | 0.00 | 0.00 | 72 | 1017.5 |
| 20260905062502 | 57 | 0 | 0.9 | 0.0 | 0.00 | 0.00 | 0.00 | 72 | 1017.6 |
| 20260905061503 | 58 | 80 | 0.9 | 1.7 | 0.00 | 0.00 | 0.00 | 72 | 1017.7 |
| 20260905061003 | 58 | 78 | 0.0 | 1.7 | 0.00 | 0.00 | 0.00 | 71 | 1017.6 |
| 20260905060502 | 58 | 74 | 0.0 | 0.9 | 0.00 | 0.00 | 0.00 | 71 | 1017.6 |
| 20260905060003 | 58 | 74 | 0.9 | 0.9 | 0.00 | 0.00 | 0.00 | 71 | 1017.6 |
| 20260905055503 | 58 | 75 | 0.0 | 1.7 | 0.00 | 0.00 | 0.00 | 70 | 1017.5 |
| 20260905055003 | 59 | 77 | 0.0 | 0.9 | 0.00 | 0.00 | 0.00 | 70 | 1017.5 |
| 20260905054503 | 59 | 0 | 0.0 | 0.0 | 0.00 | 0.00 | 0.00 | 69 | 1017.5 |
| 20260905054003 | 59 | 0 | 0.0 | 0.0 | 0.00 | 0.00 | 0.00 | 69 | 1017.5 |
| 20260905053502 | 59 | 0 | 0.0 | 0.0 | 0.00 | 0.00 | 0.00 | 69 | 1017.5 |
| 20260905052503 | 60 | 0 | 0.0 | 0.0 | 0.00 | 0.00 | 0.00 | 68 | 1017.6 |
| 20260905052003 | 60 | 0 | 0.0 | 0.0 | 0.00 | 0.00 | 0.00 | 68 | 1017.7 |
| 20260905051503 | 60 | 77 | 0.0 | 0.9 | 0.00 | 0.00 | 0.00 | 68 | 1017.7 |
| 20260905051003 | 60 | 0 | 0.0 | 0.0 | 0.00 | 0.00 | 0.00 | 67 | 1017.7 |
| 20260905050503 | 61 | 0 | 0.0 | 0.0 | 0.00 | 0.00 | 0.00 | 67 | 1017.7 |
| 20260905050003 | 61 | 77 | 0.0 | 0.9 | 0.00 | 0.00 | 0.00 | 67 | 1017.7 |
| 20260905045504 | 61 | 80 | 0.0 | 0.9 | 0.00 | 0.00 | 0.00 | 67 | 1017.7 |
| 20260905045003 | 61 | 0 | 0.0 | 0.0 | 0.00 | 0.00 | 0.00 | 66 | 1017.6 |
| 20260905044504 | 62 | 0 | 0.0 | 0.0 | 0.00 | 0.00 | 0.00 | 66 | 1017.6 |
| 20260905044003 | 62 | 0 | 0.0 | 0.0 | 0.00 | 0.00 | 0.00 | 66 | 1017.6 |
| 20260905043503 | 62 | 0 | 0.0 | 0.0 | 0.00 | 0.00 | 0.00 | 66 | 1017.6 |
| 20260905043002 | 62 | 81 | 0.0 | 0.9 | 0.00 | 0.00 | 0.00 | 66 | 1017.6 |
| 20260905042503 | 62 | 80 | 0.0 | 0.9 | 0.00 | 0.00 | 0.00 | 66 | 1017.6 |
| 20260905042003 | 62 | 80 | 0.0 | 0.9 | 0.00 | 0.00 | 0.00 | 66 | 1017.5 |
| 20260905041003 | 63 | 81 | 0.0 | 0.9 | 0.00 | 0.00 | 0.00 | 65 | 1017.4 |
| 20260905040503 | 63 | 157 | 0.0 | 0.9 | 0.00 | 0.00 | 0.00 | 65 | 1017.4 |
| 20260905035503 | 63 | 0 | 0.0 | 0.0 | 0.00 | 0.00 | 0.00 | 64 | 1017.3 |
| 20260905035003 | 63 | 0 | 0.0 | 0.0 | 0.00 | 0.00 | 0.00 | 64 | 1017.2 |
| 20260905034503 | 64 | 0 | 0.0 | 0.0 | 0.00 | 0.00 | 0.00 | 64 | 1017.2 |
| 20260905034003 | 64 | 0 | 0.0 | 0.0 | 0.00 | 0.00 | 0.00 | 64 | 1017.1 |
| 20260905033503 | 64 | 0 | 0.0 | 0.0 | 0.00 | 0.00 | 0.00 | 64 | 1017.0 |
| 20260905032503 | 64 | 0 | 0.0 | 0.0 | 0.00 | 0.00 | 0.00 | 63 | 1016.8 |
| 20260905032003 | 64 | 169 | 0.0 | 0.9 | 0.00 | 0.00 | 0.00 | 63 | 1016.8 |
| 20260905031503 | 64 | 170 | 0.0 | 1.7 | 0.00 | 0.00 | 0.00 | 62 | 1016.6 |
| 20260905031003 | 65 | 0 | 0.0 | 0.0 | 0.00 | 0.00 | 0.00 | 62 | 1016.8 |
| 20260905030003 | 65 | 0 | 0.0 | 0.0 | 0.00 | 0.00 | 0.00 | 61 | 1016.7 |
| 20260905025503 | 65 | 154 | 0.0 | 0.9 | 0.00 | 0.00 | 0.00 | 60 | 1016.6 |
| 20260905025003 | 65 | 150 | 0.0 | 1.7 | 0.00 | 0.00 | 0.00 | 60 | 1016.6 |
| 20260905024503 | 65 | 0 | 0.0 | 0.0 | 0.00 | 0.00 | 0.00 | 59 | 1016.6 |
| 20260905024003 | 65 | 194 | 0.0 | 0.9 | 0.00 | 0.00 | 0.00 | 59 | 1016.5 |
| 20260905023503 | 66 | 0 | 0.0 | 0.0 | 0.00 | 0.00 | 0.00 | 59 | 1016.4 |
| 20260905023003 | 66 | 195 | 0.9 | 1.7 | 0.00 | 0.00 | 0.00 | 59 | 1016.4 |
| 20260905022503 | 66 | 197 | 1.7 | 1.7 | 0.00 | 0.00 | 0.00 | 59 | 1016.5 |
| 20260905022003 | 66 | 233 | 1.7 | 2.6 | 0.00 | 0.00 | 0.00 | 58 | 1016.5 |
| 20260905021502 | 66 | 198 | 1.7 | 4.3 | 0.00 | 0.00 | 0.00 | 58 | 1016.5 |
| 20260905021003 | 66 | 245 | 3.5 | 3.5 | 0.00 | 0.00 | 0.00 | 58 | 1016.5 |
| 20260905020503 | 66 | 237 | 4.3 | 8.7 | 0.00 | 0.00 | 0.00 | 58 | 1016.4 |
| 20260905015503 | 67 | 235 | 6.1 | 8.7 | 0.00 | 0.00 | 0.00 | 57 | 1016.4 |
| 20260905015003 | 67 | 238 | 6.1 | 9.6 | 0.00 | 0.00 | 0.00 | 56 | 1016.3 |
| 20260905014503 | 67 | 237 | 5.2 | 11.3 | 0.00 | 0.00 | 0.00 | 56 | 1016.3 |
| 20260905014004 | 68 | 240 | 5.2 | 9.6 | 0.00 | 0.00 | 0.00 | 55 | 1016.3 |
| 20260905013503 | 68 | 234 | 6.1 | 8.7 | 0.00 | 0.00 | 0.00 | 55 | 1016.3 |
| 20260905013003 | 68 | 227 | 7.0 | 9.6 | 0.00 | 0.00 | 0.00 | 55 | 1016.3 |
| 20260905012503 | 69 | 234 | 7.8 | 10.4 | 0.00 | 0.00 | 0.00 | 55 | 1016.3 |
| 20260905012003 | 69 | 235 | 7.8 | 10.4 | 0.00 | 0.00 | 0.00 | 54 | 1016.3 |
| 20260905010504 | 69 | 239 | 7.0 | 14.8 | 0.00 | 0.00 | 0.00 | 54 | 1016.3 |
| 20260905010004 | 69 | 223 | 7.0 | 11.3 | 0.00 | 0.00 | 0.00 | 52 | 1016.3 |
| 20260905005504 | 70 | 216 | 7.0 | 11.3 | 0.00 | 0.00 | 0.00 | 51 | 1016.3 |
| 20260905005003 | 70 | 216 | 7.8 | 9.6 | 0.00 | 0.00 | 0.00 | 52 | 1016.2 |
| 20260905004503 | 70 | 226 | 8.7 | 10.4 | 0.00 | 0.00 | 0.00 | 52 | 1016.2 |
| 20260905004003 | 70 | 232 | 8.7 | 13.0 | 0.00 | 0.00 | 0.00 | 50 | 1016.2 |
| 20260905003504 | 70 | 235 | 8.7 | 14.8 | 0.00 | 0.00 | 0.00 | 50 | 1016.2 |
| 20260905003003 | 70 | 231 | 10.4 | 13.9 | 0.00 | 0.00 | 0.00 | 50 | 1016.1 |
| 20260905002503 | 70 | 232 | 10.4 | 14.8 | 0.00 | 0.00 | 0.00 | 50 | 1016.0 |
| 20260905002003 | 70 | 233 | 9.6 | 18.2 | 0.00 | 0.00 | 0.00 | 49 | 1016.0 |
| 20260905001504 | 70 | 238 | 9.6 | 12.2 | 0.00 | 0.00 | 0.00 | 48 | 1016.1 |
| 20260905001003 | 71 | 233 | 8.7 | 13.0 | 0.00 | 0.00 | 0.00 | 47 | 1016.1 |
| 20260905000503 | 71 | 240 | 7.0 | 14.8 | 0.00 | 0.00 | 0.00 | 46 | 1016.1 |
| 20260905000003 | 71 | 211 | 7.0 | 10.4 | 0.00 | 0.00 | 0.00 | 46 | 1016.2 |
| 20260904235503 | 71 | 218 | 7.8 | 12.2 | 0.00 | 0.00 | 0.00 | 47 | 1016.0 |
| 20260904234504 | 71 | 233 | 9.6 | 13.9 | 0.00 | 0.00 | 0.00 | 50 | 1016.0 |
| 20260904233503 | 71 | 230 | 9.6 | 16.5 | 0.00 | 0.00 | 0.00 | 48 | 1016.0 |
| 20260904233004 | 71 | 233 | 9.6 | 14.8 | 0.00 | 0.00 | 0.00 | 49 | 1016.0 |
| 20260904232503 | 71 | 235 | 9.6 | 16.5 | 0.00 | 0.00 | 0.00 | 48 | 1016.0 |
| 20260904232003 | 71 | 234 | 8.7 | 14.8 | 0.00 | 0.00 | 0.00 | 47 | 1016.0 |
| 20260904230003 | 71 | 233 | 10.4 | 14.8 | 0.00 | 0.00 | 0.00 | 49 | 1016.0 |
| 20260904225504 | 70 | 236 | 10.4 | 16.5 | 0.00 | 0.00 | 0.00 | 50 | 1016.1 |
| 20260904225003 | 71 | 232 | 11.3 | 18.2 | 0.00 | 0.00 | 0.00 | 50 | 1016.0 |
| 20260904224503 | 70 | 232 | 11.3 | 20.0 | 0.00 | 0.00 | 0.00 | 51 | 1016.0 |
| 20260904224003 | 71 | 236 | 10.4 | 17.4 | 0.00 | 0.00 | 0.00 | 50 | 1015.9 |
| 20260904223003 | 70 | 238 | 10.4 | 14.8 | 0.00 | 0.00 | 0.00 | 51 | 1015.9 |
| 20260904222503 | 70 | 236 | 11.3 | 16.5 | 0.00 | 0.00 | 0.00 | 50 | 1015.8 |
| 20260904222003 | 70 | 236 | 10.4 | 14.8 | 0.00 | 0.00 | 0.00 | 50 | 1015.9 |
| 20260904221504 | 71 | 235 | 10.4 | 20.0 | 0.00 | 0.00 | 0.00 | 51 | 1015.9 |
| 20260904221003 | 70 | 229 | 11.3 | 13.9 | 0.00 | 0.00 | 0.00 | 51 | 1015.9 |
| 20260904220503 | 70 | 234 | 10.4 | 14.8 | 0.00 | 0.00 | 0.00 | 51 | 1016.0 |
| 20260904215503 | 70 | 228 | 10.4 | 12.2 | 0.00 | 0.00 | 0.00 | 52 | 1016.1 |
| 20260904214503 | 70 | 237 | 10.4 | 14.8 | 0.00 | 0.00 | 0.00 | 52 | 1016.0 |
| 20260904214004 | 70 | 239 | 10.4 | 16.5 | 0.00 | 0.00 | 0.00 | 51 | 1016.0 |
| 20260904213003 | 70 | 239 | 10.4 | 17.4 | 0.00 | 0.00 | 0.00 | 52 | 1016.0 |
| 20260904212504 | 71 | 235 | 9.6 | 14.8 | 0.00 | 0.00 | 0.00 | 51 | 1016.0 |
| 20260904212003 | 71 | 234 | 9.6 | 16.5 | 0.00 | 0.00 | 0.00 | 51 | 1016.1 |
| 20260904211504 | 70 | 234 | 10.4 | 16.5 | 0.00 | 0.00 | 0.00 | 52 | 1016.1 |
| 20260904211003 | 70 | 234 | 9.6 | 14.8 | 0.00 | 0.00 | 0.00 | 52 | 1016.1 |
| 20260904210502 | 70 | 232 | 9.6 | 17.4 | 0.00 | 0.00 | 0.00 | 52 | 1016.2 |
| 20260904210003 | 70 | 232 | 9.6 | 16.5 | 0.00 | 0.00 | 0.00 | 53 | 1016.3 |
| 20260904205503 | 70 | 230 | 10.4 | 16.5 | 0.00 | 0.00 | 0.00 | 52 | 1016.3 |
| 20260904205002 | 70 | 232 | 9.6 | 15.6 | 0.00 | 0.00 | 0.00 | 52 | 1016.2 |
| 20260904204502 | 70 | 235 | 9.6 | 14.8 | 0.00 | 0.00 | 0.00 | 52 | 1016.4 |
| 20260904204002 | 70 | 230 | 10.4 | 12.2 | 0.00 | 0.00 | 0.00 | 53 | 1016.3 |
| 20260904203502 | 70 | 238 | 11.3 | 16.5 | 0.00 | 0.00 | 0.00 | 53 | 1016.4 |
| 20260904203002 | 69 | 243 | 10.4 | 16.5 | 0.00 | 0.00 | 0.00 | 53 | 1016.2 |
| 20260904202503 | 70 | 234 | 10.4 | 16.5 | 0.00 | 0.00 | 0.00 | 53 | 1016.2 |
| 20260904202002 | 69 | 234 | 10.4 | 14.8 | 0.00 | 0.00 | 0.00 | 53 | 1016.2 |
| 20260904201502 | 69 | 238 | 9.6 | 17.4 | 0.00 | 0.00 | 0.00 | 53 | 1016.3 |
| 20260904201003 | 69 | 233 | 8.7 | 13.0 | 0.00 | 0.00 | 0.00 | 53 | 1016.3 |
| 20260904200503 | 69 | 235 | 8.7 | 12.2 | 0.00 | 0.00 | 0.00 | 54 | 1016.4 |